{"data":{"norad_id":59731,"epoch":"2026-05-25T04:41:08.900160Z","epoch_age_seconds":62178,"freshness":"FRESH","line1":"1 59731U 24090B   26145.19524190  .00000511  00000+0  28068-4 0  9993","line2":"2 59731  42.9996 111.1787 0000689 273.3761  86.7012 15.27578116115143","mean_motion":15.27578116,"eccentricity":6.89e-5,"inclination_deg":42.9996,"raan_deg":111.1787,"arg_perigee_deg":273.3761,"mean_anomaly_deg":86.7012,"bstar":2.8068e-5,"rev_number":11514,"period_min":94.266864975172,"perigee_km":482.58200130851,"apogee_km":483.52747352993,"semimajor_km":6861.1917374192,"source":"CELESTRAK","updated_at":"2026-05-25T13:38:19.050458Z"}}